This is the latest recevied weather packets stored in our database for station/object E20YUC-1. If no packets are shown the sender has not sent any weather packets the latest 10 day(s).
| Time | Temp. | Humidity | Pressure | Rain* | Wind** | Luminosity | Snow |
|---|---|---|---|---|---|---|---|
| 1787535275 | 28.89° C | 76% | 996.9 hPa | 0 mm | 0.89 m/s, 0° | - | - |
| 1787534973 | 28.89° C | 76% | 997 hPa | 0 mm | 2.68 m/s, 0° | - | - |
| 1787534673 | 28.89° C | 76% | 996.8 hPa | 0 mm | 2.68 m/s, 0° | - | - |
| 1787534373 | 28.89° C | 76% | 996.7 hPa | 0 mm | 0 m/s | - | - |
| 1787534073 | 28.33° C | 76% | 996.8 hPa | 0 mm | 0 m/s | - | - |
| 1787533774 | 28.33° C | 76% | 996.8 hPa | 0 mm | 0.89 m/s, 0° | - | - |
| 1787533473 | 28.33° C | 77% | 996.8 hPa | 0 mm | 2.68 m/s, 0° | - | - |
| 1787533172 | 28.33° C | 77% | 996.7 hPa | 0 mm | 0 m/s | - | - |
| 1787532572 | 28.33° C | 78% | 996.7 hPa | 0 mm | 1.34 m/s, 0° | - | - |
| 1787532274 | 28.33° C | 78% | 996.4 hPa | 0 mm | 0 m/s | - | - |
| 1787531973 | 27.78° C | 78% | 996.3 hPa | 0 mm | 0 m/s | - | - |
| 1787531372 | 27.78° C | 78% | 996.2 hPa | 0 mm | 0 m/s | - | - |
| 1787531072 | 27.78° C | 78% | 996.2 hPa | 0 mm | 1.79 m/s, 0° | - | - |
| 1787530774 | 27.78° C | 78% | 996 hPa | 0 mm | 1.34 m/s, 0° | - | - |
| 1787530172 | 27.78° C | 78% | 995.9 hPa | 0 mm | 0.89 m/s, 0° | - | - |
| 1787529872 | 27.78° C | 78% | 995.9 hPa | 0 mm | 0 m/s | - | - |
| 1787529572 | 27.78° C | 78% | 995.8 hPa | 0 mm | 0 m/s | - | - |
| 1787529274 | 27.78° C | 78% | 995.7 hPa | 0 mm | 1.34 m/s, 0° | - | - |
| 1787528672 | 27.78° C | 78% | 995.7 hPa | 0 mm | 0.89 m/s, 0° | - | - |
| 1787528072 | 27.78° C | 78% | 995.6 hPa | 0 mm | 51.41 m/s, 0° | - | - |
| 1787527773 | 27.78° C | 78% | 995.8 hPa | 0 mm | 1.34 m/s, 0° | - | - |
| 1787527472 | 27.78° C | 78% | 995.6 hPa | 0 mm | 2.24 m/s, 0° | - | - |
| 1787527172 | 27.78° C | 78% | 995.6 hPa | 0 mm | 1.79 m/s, 0° | - | - |
| 1787526871 | 27.78° C | 78% | 995.4 hPa | 0 mm | 0 m/s | - | - |
| 1787526274 | 27.78° C | 78% | 995.5 hPa | 0 mm | 0 m/s | - | - |
* Rain latest hour (hover to see other rain measurements)
** Current wind speed in m/s (hover to see current wind gust speed)